, AK

(GMT )
Deadhorse

Weather History for PASC - November, 2012

Change the Weather History Date:

Tuesday, November 13, 2012

  Actual Average Record
Temperature  
Mean Temperature 6 °F -  
Max Temperature 10 °F 7 °F 28 °F (1997)
Min Temperature 1 °F -1 °F -35 °F (1988)
Degree Days  
Heating Degree Days 60    
Moisture  
Dew Point 3 °F    
Average Humidity 87    
Maximum Humidity 92    
Minimum Humidity 79    
Precipitation  
Precipitation 0.00 in - - ()
Sea Level Pressure  
Sea Level Pressure 30.07 in    
Wind  
Wind Speed 23 mph (West)    
Max Wind Speed 33 mph    
Max Gust Speed 40 mph    
Visibility 2 miles    
Events Snow    
Averages and records for this station are not official NWS values.
T = Trace of Precipitation, MM = Missing Value Source: NWS Daily Summary

Daily Weather History Graph

Daily Weather History Graph

Search for Another Location

Airport or City:

Trip Planner

Search our weather history database for the weather conditions in past years. The results will help you decide how hot, cold, wet, or windy it might be!

Date:

Astronomy

Nov. 13, 2012 Rise Set
Actual Time 10:39 AM AKST 2:35 PM AKST
Civil Twilight 9:02 AM AKST 4:12 PM AKST
Nautical Twilight 7:40 AM AKST 5:35 PM AKST
Astronomical Twilight 6:27 AM AKST 6:47 PM AKST
Moon 11:05 AM AKST (11/13) 1:54 PM AKST (11/13)
Length of Visible Light 7h 10m
Length of Day
3h 56m
Waning Crescent, 0% of the Moon is Illuminated
Nov 13
Waning Crescent
Nov 13
New
Nov 20
First Quarter
Nov 28
Full
Dec 6
Last Quarter

Hourly Weather History & Observations

Time (AKST) Temp. Windchill Dew Point Humidity Pressure Visibility Wind Dir Wind Speed Gust Speed Precip Events Conditions
12:03 AM 10.4 °F -7.7 °F 8.6 °F 92% 30.11 in 3.0 mi WNW 18.4 mph - 0.00 in Snow Light Snow
12:44 AM 8.6 °F -8.3 °F 6.8 °F 92% 30.13 in 7.0 mi WNW 15.0 mph - 0.00 in   Mostly Cloudy
12:53 AM 7.0 °F -10.4 °F 3.9 °F 87% 30.14 in 7.0 mi WNW 15.0 mph - 0.00 in   Scattered Clouds
1:53 AM 3.9 °F -14.3 °F 1.9 °F 91% 30.17 in 10.0 mi West 15.0 mph - N/A   Scattered Clouds
2:05 AM 3.2 °F -15.9 °F 1.4 °F 92% 30.16 in 4.0 mi West 16.1 mph - N/A   Mostly Cloudy
2:18 AM 3.2 °F -15.9 °F 1.4 °F 92% 30.16 in 2.0 mi West 16.1 mph - N/A   Mostly Cloudy
2:53 AM 1.9 °F -18.7 °F -0.0 °F 91% 30.17 in 1.5 mi WSW 18.4 mph - N/A   Overcast
3:05 AM 1.4 °F -19.4 °F -0.4 °F 92% 30.16 in 1.5 mi WSW 18.4 mph - N/A   Overcast
3:50 AM 6.8 °F -13.8 °F 3.2 °F 85% 30.17 in 1.0 mi West 21.9 mph - N/A   Overcast
3:53 AM 6.1 °F -15.2 °F 3.0 °F 87% 30.17 in 1.2 mi West 23.0 mph - N/A   Overcast
4:13 AM 6.8 °F -15.1 °F 3.2 °F 85% 30.16 in 1.0 mi West 25.3 mph - N/A Snow Blowing Snow
4:46 AM 6.8 °F -15.9 °F 3.2 °F 85% 30.16 in 0.8 mi West 27.6 mph - N/A Snow Blowing Snow
4:53 AM 7.0 °F -15.3 °F 3.9 °F 87% 30.17 in 0.8 mi West 26.5 mph - N/A Snow Blowing Snow
5:11 AM 6.8 °F -15.9 °F 3.2 °F 85% 30.16 in 0.8 mi WSW 27.6 mph - 0.00 in Snow Light Snow
5:50 AM 8.6 °F -13.8 °F 5.0 °F 85% 30.15 in 1.0 mi WSW 28.8 mph - 0.00 in Snow Light Snow
5:53 AM 8.1 °F -14.9 °F 5.0 °F 87% 30.16 in 0.8 mi West 29.9 mph - 0.00 in Snow Light Snow
6:39 AM 6.8 °F -17.3 °F 3.2 °F 85% 30.15 in 0.8 mi WSW 32.2 mph - 0.00 in Snow Light Snow
6:53 AM 7.0 °F -17.3 °F 3.9 °F 87% 30.16 in 0.8 mi WSW 33.4 mph 38.0 mph 0.00 in Snow Light Snow
7:26 AM 6.8 °F -16.2 °F 3.2 °F 85% 30.14 in 0.8 mi WSW 28.8 mph - 0.00 in Snow Light Snow
7:53 AM 5.0 °F -19.4 °F 3.0 °F 92% 30.14 in 0.8 mi WSW 31.1 mph 38.0 mph 0.00 in Snow Light Snow
8:10 AM 6.8 °F -16.6 °F 3.2 °F 85% 30.13 in 1.0 mi WSW 29.9 mph - 0.00 in Snow Light Snow
8:20 AM 5.0 °F -18.7 °F 1.4 °F 85% 30.13 in 0.8 mi WSW 28.8 mph - 0.00 in Snow Light Snow
8:23 AM 5.0 °F -18.7 °F 1.4 °F 85% 30.13 in 1.0 mi WSW 28.8 mph - 0.00 in Snow Light Snow
8:47 AM 5.0 °F -19.0 °F 1.4 °F 85% 30.13 in 0.8 mi WSW 29.9 mph 39.1 mph 0.00 in Snow Light Snow
8:53 AM 5.0 °F -19.0 °F 1.9 °F 87% 30.14 in 1.0 mi WSW 29.9 mph - 0.00 in Snow Light Snow
9:00 AM 3.2 °F -21.5 °F 1.4 °F 92% 30.13 in 1.0 mi WSW 29.9 mph - 0.00 in Snow Light Snow
9:15 AM 5.0 °F -19.0 °F 1.4 °F 85% 30.13 in 1.0 mi WSW 29.9 mph - 0.00 in Snow Light Snow
9:53 AM 5.0 °F -18.7 °F 1.9 °F 87% 30.14 in 1.0 mi WSW 28.8 mph - 0.00 in Snow Light Snow
10:35 AM 5.0 °F -19.0 °F 1.4 °F 85% 30.13 in 1.0 mi WSW 29.9 mph 39.1 mph 0.00 in Snow Light Snow
10:53 AM 5.0 °F -19.0 °F 1.9 °F 87% 30.13 in 0.8 mi WSW 29.9 mph - 0.00 in Snow Light Snow
11:04 AM 5.0 °F -19.0 °F 1.4 °F 85% 30.12 in 1.0 mi WSW 29.9 mph - 0.00 in Snow Light Snow
11:53 AM 5.0 °F -18.7 °F 1.9 °F 87% 30.10 in 1.0 mi WSW 28.8 mph - 0.00 in Snow Light Snow
12:53 PM 5.0 °F -19.7 °F 1.9 °F 87% 30.07 in 0.8 mi WSW 32.2 mph - 0.00 in Snow Light Snow
1:00 PM 5.0 °F -19.7 °F 1.4 °F 85% 30.05 in 0.8 mi WSW 32.2 mph - 0.00 in Snow Light Snow
1:09 PM 5.0 °F -20.1 °F 1.4 °F 85% 30.05 in 0.8 mi WSW 33.4 mph - 0.00 in Snow Light Snow
1:19 PM 5.0 °F -19.4 °F 1.4 °F 85% 30.05 in 0.8 mi WSW 31.1 mph 40.3 mph 0.00 in Snow Light Snow
1:53 PM 3.9 °F -20.5 °F 1.0 °F 88% 30.05 in 0.8 mi SW 29.9 mph 39.1 mph 0.00 in Snow Light Snow
2:53 PM 5.0 °F -19.0 °F 1.9 °F 87% 30.03 in 0.5 mi WSW 29.9 mph - 0.00 in Snow Light Snow
3:14 PM 6.8 °F -16.6 °F 1.4 °F 79% 30.01 in 1.0 mi WSW 29.9 mph 38.0 mph 0.00 in Snow Light Snow
3:34 PM 6.8 °F -16.9 °F 3.2 °F 85% 30.00 in 0.8 mi WSW 31.1 mph 39.1 mph 0.00 in Snow Light Snow
3:53 PM 7.0 °F -16.7 °F 3.9 °F 87% 30.00 in 0.5 mi WSW 31.1 mph - 0.00 in Snow Light Snow
4:26 PM 6.8 °F -16.9 °F 3.2 °F 85% 29.99 in 0.8 mi WSW 31.1 mph - 0.00 in Snow Light Snow
4:53 PM 6.1 °F -16.8 °F 3.0 °F 87% 29.99 in 0.8 mi WSW 27.6 mph - 0.00 in Snow Light Snow
5:10 PM 6.8 °F -15.5 °F 3.2 °F 85% 29.98 in 1.2 mi WSW 26.5 mph - 0.00 in Snow Light Snow
5:36 PM 6.8 °F -15.9 °F 3.2 °F 85% 29.97 in 1.0 mi WSW 27.6 mph - 0.00 in Snow Light Snow
5:53 PM 6.1 °F -16.1 °F 3.9 °F 91% 29.98 in 1.0 mi WSW 25.3 mph - 0.00 in Snow Light Snow
6:26 PM 6.8 °F -15.1 °F 5.0 °F 92% 29.97 in 0.8 mi West 25.3 mph - 0.00 in Snow Light Snow
6:34 PM 6.8 °F -14.7 °F 5.0 °F 92% 29.96 in 1.0 mi West 24.2 mph - 0.00 in Snow Light Snow
6:53 PM 7.0 °F -14.9 °F 5.0 °F 92% 29.97 in 1.5 mi West 25.3 mph - 0.00 in Snow Light Snow
7:26 PM 6.8 °F -14.3 °F 3.2 °F 85% 29.97 in 2.5 mi West 23.0 mph - 0.00 in Snow Light Snow
7:53 PM 7.0 °F -14.0 °F 3.9 °F 87% 29.98 in 3.0 mi West 23.0 mph - 0.00 in Snow Light Snow
8:17 PM 6.8 °F -13.8 °F 3.2 °F 85% 29.97 in 2.5 mi West 21.9 mph - 0.00 in Snow Light Snow
8:22 PM 6.8 °F -14.3 °F 5.0 °F 92% 29.98 in 1.8 mi West 23.0 mph - 0.00 in Snow Light Snow
8:30 PM 6.8 °F -14.3 °F 5.0 °F 92% 29.98 in 1.0 mi West 23.0 mph - 0.00 in Snow Light Snow
8:36 PM 8.6 °F -11.4 °F 5.0 °F 85% 29.98 in 1.2 mi West 21.9 mph 29.9 mph 0.00 in Snow Light Snow
8:43 PM 8.6 °F -10.5 °F 5.0 °F 85% 29.98 in 2.0 mi West 19.6 mph - 0.00 in Snow Light Snow
8:53 PM 7.0 °F -10.4 °F 3.9 °F 87% 29.99 in 3.0 mi WNW 15.0 mph - 0.00 in Snow Light Snow
9:01 PM 6.8 °F -10.0 °F 3.2 °F 85% 29.99 in 7.0 mi NW 13.8 mph - 0.00 in Snow Light Snow
9:39 PM 6.8 °F -10.7 °F 1.4 °F 79% 30.00 in 7.0 mi WNW 15.0 mph - 0.00 in   Overcast
9:53 PM 6.1 °F -11.6 °F 1.9 °F 83% 30.01 in 9.0 mi WNW 15.0 mph - 0.00 in   Overcast
10:14 PM 6.8 °F -10.0 °F 1.4 °F 79% 30.01 in 10.0 mi WNW 13.8 mph - N/A   Overcast
10:28 PM 6.8 °F -11.8 °F 3.2 °F 85% 30.01 in 2.0 mi NNW 17.3 mph - 0.00 in Snow Light Snow
10:53 PM 5.0 °F -14.7 °F 1.9 °F 87% 30.03 in 1.8 mi NNW 18.4 mph - 0.00 in Snow Light Snow
11:10 PM 5.0 °F -15.7 °F 1.4 °F 85% 30.03 in 3.0 mi NNW 20.7 mph - 0.00 in Snow Light Snow
11:53 PM 3.9 °F -16.6 °F -0.0 °F 84% 30.05 in 7.0 mi North 19.6 mph - 0.00 in Snow Light Snow